SCP
0 0 0 0 0 0 0 0 0 0 0 0 0 0 0 0 0 0 0 0 0 0 0 0 0 0 0 0 0 0 0 0 0 0 1 1 1 1 1 0 0 0 0 0
0 0 0 0 0 0 0 0 0 0 0 0 0 0 0 0 0 0 0 0 0 0 0 0 0 0 0 0 0 0 0 0 0 0 0 1 1 2 2 2 1 1 0 0
0 0 0 0 0 0 0 0 0 0 0 0 0 -0 -0 0 0 0 0 0 0 0 0 0 0 0 0 0 0 0 0 0 0 0 0 0 1 2 2 1 1 1 1 1
0 0 0 0 0 0 0 0 0 0 0 0 0 -0 -0 0 0 0 0 0 0 0 0 0 0 0 0 0 0 0 0 0 0 0 0 0 0 1 2 1 1 1 1 1
0 0 0 0 0 0 0 0 0 0 0 0 0 -0 -0 -0 -0 0 0 0 0 0 0 0 0 0 0 0 0 0 0 0 0 0 0 0 0 1 2 1 2 3 2 2
0 0 0 0 0 0 0 0 0 0 0 -0 0 0 -0 -0 -0 0 0 0 0 0 0 0 0 0 0 0 0 0 0 0 0 0 0 0 0 1 2 2 2 2 3 2
0 0 0 0 0 0 0 0 0 0 0 0 0 0 0 0 -0 -0 0 0 0 0 0 0 0 0 0 0 0 0 0 0 0 0 0 0 0 1 2 3 2 3 4 3
0 0 0 0 0 0 0 0 0 0 0 0 0 0 0 0 -0 0 -0 0 0 0 0 -0 0 0 0 0 -0 0 0 0 0 0 0 0 0 0 1 2 2 2 3 3
0 0 0 0 0 0 0 0 0 0 0 0 0 0 0 0 -0 0 -0 0 0 0 0 -0 -0 -0 -0 -0 -0 -0 0 0 0 0 0 0 0 0 0 2 2 2 3 2
0 0 0 0 0 0 0 0 0 0 0 0 0 0 0 -0 0 0 0 0 0 0 0 -0 -0 -0 -0 -0 -0 -0 -0 0 0 0 0 0 0 0 0 1 2 1 2 2
0 0 0 0 0 0 0 0 0 0 0 0 0 0 0 0 0 0 0 0 0 0 -0 0 0 0 -0 -0 -0 -0 -0 0 0 0 0 0 0 0 0 1 2 2 2 3
0 0 0 0 0 0 0 0 0 0 0 0 0 0 0 -0 -0 0 0 0 0 0 0 0 0 -0 -0 -0 -0 -0 -0 -0 0 0 0 0 0 0 1 1 1 1 2 3
0 0 0 0 0 0 0 0 0 0 0 0 0 0 0 0 0 0 0 0 0 0 0 0 0 0 -0 -0 -0 -0 -0 0 0 0 0 0 0 1 1 1 0 1 2 2
0 0 0 0 0 0 0 0 0 0 0 0 0 -0 -0 0 0 0 0 0 0 0 0 0 0 -0 -0 -0 -0 0 0 0 0 0 0 0 0 1 0 1 1 2 1 2
0 0 0 0 0 0 0 0 0 0 0 0 0 0 0 -0 0 0 0 0 0 0 0 0 0 -0 -0 -0 -0 0 0 0 0 0 0 0 1 0 0 1 1 2 3 3
0 0 0 0 0 0 0 0 0 0 0 -0 -0 -0 0 0 0 0 0 0 0 0 0 0 0 -0 -0 -0 -0 0 0 0 0 0 0 0 1 0 0 1 2 3 3 3
0 0 0 0 0 0 0 -0 0 0 0 0 0 0 0 0 0 0 0 0 0 0 0 -0 -0 -0 -0 -0 0 0 0 0 0 0 0 0 1 1 1 1 2 3 4 4
0 0 0 0 0 0 0 0 0 0 0 0 0 0 0 0 0 0 0 0 0 0 -0 -0 -0 -0 -0 -0 0 -0 0 0 0 0 0 0 2 1 2 3 3 4 3 2
0 0 0 0 0 0 -0 0 0 0 0 0 0 0 0 0 0 0 0 0 0 -0 -0 -0 -0 0 0 -0 0 -0 0 0 0 0 0 2 3 2 2 3 3 3 2 3
0 0 0 0 0 0 0 0 0 0 0 0 0 -0 0 0 -0 -0 0 0 0 -0 -0 -0 0 0 0 0 0 0 0 0 0 0 0 1 1 2 2 3 3 2 3 3
0 0 0 0 0 0 0 0 0 0 0 0 0 0 0 0 0 -0 -0 0 -0 -0 -0 0 0 0 0 -0 -0 0 0 0 0 0 0 1 1 2 2 2 2 2 1 2
0 -0 0 0 0 0 0 0 0 0 0 0 -0 -0 0 0 -0 -0 -0 -0 -0 -0 0 0 0 0 0 0 0 0 0 0 0 0 0 1 1 1 1 1 1 1 1 0
0 0 0 0 0 0 0 0 0 0 -0 0 0 0 0 -0 -0 -0 -0 -0 -0 0 0 0 0 0 -0 -0 -0 0 0 0 0 0 0 0 0 0 0 0 0 0 0 0
0 0 0 0 0 -0 -0 -0 -0 0 0 0 0 -0 0 -0 -0 0 0 -0 0 0 0 -0 -0 -0 -0 -0 -0 0 0 0 0 0 0 0 0 0 0 0 0 0 0 0
0 0 0 0 0 0 0 0 0 0 0 0 0 0 -0 -0 0 0 0 0 -0 0 -0 -0 -0 -0 -0 0 0 0 0 0 0 0 0 0 0 0 0 0 0 0 0 0
0 0 0 0 0 0 0 0 0 0 0 0 0 -0 -0 0 0 0 -0 -0 0 -0 -0 -0 -0 -0 0 0 0 0 0 0 0 0 0 0 0 0 0 0 0 0 0 0
Wind_Speed_500mb
4 5 8 6 11 4 5 7 7 5 1 18 18 27 27 36 26 32 23 26 20 16 15 18 13 20 24 21 24 24 25 19 24 26 35 43 44 45 44 53 59 68 64 61
5 8 5 7 5 10 10 7 7 9 7 12 24 37 32 36 30 39 33 27 24 16 19 8 13 19 24 32 31 32 32 31 25 30 33 39 48 50 52 51 57 68 77 70
7 1 2 2 2 7 6 6 5 7 9 18 18 31 14 5 17 20 17 15 13 16 11 21 25 27 29 29 35 38 42 43 36 33 37 41 50 56 59 58 56 62 82 83
8 0 7 3 5 10 10 9 4 9 15 13 8 13 11 13 11 7 7 12 9 10 12 16 25 31 35 36 36 33 41 50 49 44 45 44 50 58 64 65 59 63 73 89
3 8 6 8 5 8 4 5 3 9 19 12 10 11 1 7 6 3 10 8 6 9 15 23 34 38 40 43 44 47 46 44 48 51 51 51 54 57 65 66 66 64 62 71
13 3 6 2 6 3 5 3 6 2 5 10 1 8 7 11 16 1 8 7 12 14 17 27 37 44 49 53 55 57 54 53 49 49 56 59 58 59 63 68 71 68 65 67
3 4 2 4 7 5 4 9 10 6 6 6 3 17 14 13 19 19 16 25 14 20 29 42 43 47 53 59 64 68 66 58 53 55 55 58 64 61 62 69 75 72 69 71
9 10 13 7 4 2 3 6 8 8 7 11 7 16 3 2 11 18 21 15 20 27 28 28 34 43 52 60 65 72 77 66 51 59 60 58 61 65 63 70 74 77 75 68
11 10 2 3 4 6 6 11 4 9 7 13 12 14 20 20 18 10 13 15 22 41 48 47 42 39 42 53 65 71 75 77 63 62 64 64 60 66 69 66 78 76 73 66
6 10 3 4 6 5 10 17 7 6 8 10 11 25 19 18 21 12 14 20 34 53 55 50 48 50 49 46 48 55 67 72 72 63 62 67 63 62 71 69 77 84 75 61
10 8 4 3 15 20 9 12 4 2 6 7 10 8 5 11 13 20 20 27 43 60 56 51 55 56 56 54 54 56 62 65 70 66 64 65 66 62 70 75 72 81 70 65
4 4 14 20 2 3 11 19 21 10 11 9 8 15 16 21 18 14 33 53 58 47 42 48 54 54 54 60 62 56 58 67 65 66 67 67 68 63 69 75 74 72 63 68
12 7 9 7 6 4 11 20 20 11 5 24 19 15 6 8 26 57 55 51 46 36 41 40 41 44 50 57 62 65 65 59 64 67 70 65 68 69 75 78 73 65 59 65
16 15 23 24 17 2 11 14 23 26 21 30 35 58 48 50 46 43 50 48 37 39 37 37 39 44 48 56 64 71 69 60 62 66 67 65 67 74 79 77 74 61 61 66
9 18 27 36 34 34 41 40 38 41 42 36 39 48 50 42 39 46 51 36 32 37 35 43 46 50 53 63 69 76 60 69 62 64 65 64 61 72 78 74 74 65 69 69
7 28 30 34 24 28 40 46 48 49 51 49 49 52 53 43 26 39 41 43 37 35 41 48 52 54 57 64 69 84 76 76 68 70 56 47 51 64 71 72 74 70 71 72
8 10 11 27 12 11 21 51 48 44 36 30 31 37 19 26 26 39 44 41 51 53 51 54 56 57 59 65 81 83 89 84 72 75 46 42 49 54 63 70 71 73 74 74
27 21 14 16 15 18 16 4 12 17 24 18 32 34 28 27 46 54 53 49 57 54 56 58 59 58 62 73 78 74 76 78 71 67 44 41 45 54 63 74 74 73 70 70
34 23 10 9 16 21 30 2 2 2 12 16 21 16 28 50 63 57 45 38 52 52 58 66 62 62 69 71 69 61 66 62 82 67 41 28 45 53 63 68 67 65 66 67
22 25 11 9 10 6 1 3 6 6 15 8 10 29 38 46 25 32 49 60 64 63 64 68 66 71 74 64 56 57 56 70 78 40 21 13 44 56 61 62 62 61 62 62
6 5 21 20 11 11 4 5 6 5 8 17 43 46 44 33 34 77 75 65 67 69 70 72 70 68 62 55 49 47 54 59 54 34 16 3 28 41 42 47 49 56 59 63
4 5 4 7 9 7 3 4 10 27 48 50 54 52 55 58 64 72 79 75 73 76 68 57 59 51 50 49 45 45 45 43 43 31 20 11 26 37 38 48 61 61 66 73
5 6 8 8 8 15 27 34 44 48 54 46 51 57 53 57 66 74 81 72 71 67 71 60 52 52 48 43 39 41 36 33 27 15 12 18 28 35 48 63 66 69 77 81
8 12 9 13 3 25 45 48 52 47 43 58 59 53 50 59 68 72 75 67 70 75 69 62 56 56 51 42 40 39 35 26 14 12 16 28 39 50 61 65 64 71 73 68
13 13 12 23 32 41 38 52 55 59 61 56 55 52 59 62 68 68 62 66 75 69 64 63 59 63 59 45 42 36 29 20 15 16 16 43 56 63 65 73 69 58 59 63
13 10 7 12 54 48 51 65 63 68 61 56 58 67 70 60 68 62 64 69 67 64 61 64 64 59 50 41 40 36 28 22 13 21 28 44 64 62 65 68 68 58 49 44
Wind_Direction_500mb
46 218 215 225 239 208 174 191 209 246 146 327 300 293 290 281 266 270 266 265 266 258 297 313 304 301 300 298 285 279 281 273 288 278 261 260 261 257 257 256 256 248 249 251
184 239 208 287 162 181 184 189 191 266 273 314 295 292 283 272 255 241 241 227 235 260 300 294 316 322 309 302 300 286 282 280 276 285 283 268 262 265 262 265 252 242 238 242
216 199 213 79 131 181 199 215 193 262 304 269 297 278 209 243 243 220 211 237 242 276 301 328 338 336 332 323 308 300 284 283 279 279 280 272 265 259 265 262 256 245 237 240
256 9 160 294 221 201 222 187 230 275 317 302 330 285 243 277 214 241 221 277 251 309 325 339 345 339 337 332 322 313 293 281 276 276 274 276 273 263 254 263 264 257 245 241
59 181 221 257 228 189 129 188 279 288 287 296 254 252 285 199 150 93 309 258 246 319 338 337 336 341 337 331 326 312 298 290 279 272 272 271 272 265 257 255 255 257 254 246
270 243 249 190 97 92 123 219 303 173 244 246 210 255 183 195 182 305 308 293 296 323 336 333 331 335 335 332 325 328 309 294 287 277 268 266 265 268 258 250 251 253 252 249
267 215 248 206 173 122 125 338 309 260 225 295 170 292 252 233 240 280 293 305 320 324 329 332 332 333 333 333 332 328 322 303 288 280 276 268 261 259 263 248 250 250 247 243
239 227 188 170 214 255 213 276 258 285 274 311 260 255 196 330 287 280 280 282 318 335 333 326 321 323 327 329 333 331 327 311 293 287 282 275 266 258 258 252 247 246 245 245
199 237 218 192 159 201 142 211 23 259 257 276 248 272 272 281 272 315 278 300 335 336 330 326 319 314 317 322 322 324 321 314 302 297 289 278 266 256 253 256 249 247 248 244
191 259 218 134 155 82 239 144 185 188 247 255 258 276 256 283 302 331 314 300 322 332 329 324 320 316 312 313 313 313 314 307 303 301 292 283 272 259 251 252 250 244 249 244
169 241 221 214 215 221 171 195 170 252 233 258 293 257 244 273 304 311 306 306 312 320 321 315 315 314 312 311 311 307 311 306 302 298 295 281 272 259 250 251 250 239 244 235
188 232 251 250 208 287 239 242 215 222 193 227 278 275 283 258 273 279 304 305 308 308 306 309 310 311 308 311 312 307 308 307 306 298 296 279 270 256 244 245 247 236 234 218
178 217 275 230 150 179 214 196 210 226 247 242 259 256 160 227 283 304 302 302 306 301 304 310 314 312 311 314 312 308 306 302 304 297 296 283 265 253 236 239 241 228 220 211
180 229 246 255 291 165 228 213 218 227 254 261 248 272 282 290 300 303 298 299 295 297 303 309 313 312 311 312 312 310 304 304 304 304 292 287 262 248 230 232 230 216 212 204
208 255 254 260 262 265 269 268 260 249 252 251 264 269 276 287 302 305 296 284 287 294 307 304 302 303 310 311 310 314 305 307 306 307 290 277 261 245 227 226 219 209 205 208
200 259 261 264 260 260 266 265 257 255 258 257 258 267 272 284 300 314 294 282 282 296 298 301 302 298 305 312 310 316 312 309 309 314 286 278 269 235 219 216 211 203 202 208
225 239 262 267 279 301 273 254 254 251 250 253 248 250 283 300 317 321 315 283 282 298 294 298 301 297 301 308 322 313 312 311 311 314 297 293 253 216 204 202 200 199 200 204
241 247 249 270 265 255 264 303 277 249 255 243 249 271 297 307 308 307 302 286 286 292 291 295 298 297 300 312 310 307 309 311 303 311 305 278 227 202 192 193 193 194 197 198
224 217 231 228 211 282 292 223 138 229 293 262 269 303 311 313 314 298 305 301 295 292 292 296 296 295 298 303 303 304 298 290 288 294 285 235 199 186 183 181 182 184 182 182
193 216 208 202 246 252 66 156 182 228 283 113 353 318 313 317 307 300 309 306 299 294 296 297 296 298 300 302 303 304 290 299 312 313 326 182 179 174 168 169 168 173 180 183
154 171 218 236 262 274 341 185 203 270 350 309 315 308 303 298 296 300 303 303 302 300 298 296 297 295 293 296 305 294 294 299 325 316 325 122 173 177 178 176 178 179 178 176
282 297 221 224 241 253 92 201 278 316 308 306 305 302 299 298 303 300 301 305 307 305 305 303 302 301 299 302 301 292 288 306 326 314 284 239 200 189 182 180 171 170 171 168
292 315 285 231 280 304 300 295 299 300 296 301 300 302 301 300 299 299 302 306 305 302 303 301 301 303 300 298 295 290 292 313 324 292 220 215 205 192 186 171 169 168 162 152
285 307 267 314 266 301 311 309 306 304 296 301 301 297 294 294 296 297 304 302 302 304 302 304 305 302 300 293 287 277 284 301 308 256 220 192 175 172 164 159 153 150 155 155
276 296 290 281 287 314 296 306 304 303 305 298 299 295 293 295 292 296 297 303 304 303 303 304 302 299 297 284 281 275 275 278 277 226 213 173 160 151 148 147 147 155 158 164
9 356 323 294 299 291 292 295 304 310 310 309 305 301 299 295 291 290 295 302 300 299 304 303 308 304 286 282 277 267 267 243 216 181 171 172 158 154 153 150 150 157 162 166
Wind_Speed_850mb
4 5 8 6 11 4 5 7 7 5 1 18 18 27 27 36 26 32 23 26 20 16 15 18 13 20 24 21 24 24 25 19 24 26 35 43 44 45 44 53 59 68 64 61
5 8 5 7 5 10 10 7 7 9 7 12 24 37 32 36 30 39 33 27 24 16 19 8 13 19 24 32 31 32 32 31 25 30 33 39 48 50 52 51 57 68 77 70
7 1 2 2 2 7 6 6 5 7 9 18 18 31 14 5 17 20 17 15 13 16 11 21 25 27 29 29 35 38 42 43 36 33 37 41 50 56 59 58 56 62 82 83
8 0 7 3 5 10 10 9 4 9 15 13 8 13 11 13 11 7 7 12 9 10 12 16 25 31 35 36 36 33 41 50 49 44 45 44 50 58 64 65 59 63 73 89
3 8 6 8 5 8 4 5 3 9 19 12 10 11 1 7 6 3 10 8 6 9 15 23 34 38 40 43 44 47 46 44 48 51 51 51 54 57 65 66 66 64 62 71
13 3 6 2 6 3 5 3 6 2 5 10 1 8 7 11 16 1 8 7 12 14 17 27 37 44 49 53 55 57 54 53 49 49 56 59 58 59 63 68 71 68 65 67
3 4 2 4 7 5 4 9 10 6 6 6 3 17 14 13 19 19 16 25 14 20 29 42 43 47 53 59 64 68 66 58 53 55 55 58 64 61 62 69 75 72 69 71
9 10 13 7 4 2 3 6 8 8 7 11 7 16 3 2 11 18 21 15 20 27 28 28 34 43 52 60 65 72 77 66 51 59 60 58 61 65 63 70 74 77 75 68
11 10 2 3 4 6 6 11 4 9 7 13 12 14 20 20 18 10 13 15 22 41 48 47 42 39 42 53 65 71 75 77 63 62 64 64 60 66 69 66 78 76 73 66
6 10 3 4 6 5 10 17 7 6 8 10 11 25 19 18 21 12 14 20 34 53 55 50 48 50 49 46 48 55 67 72 72 63 62 67 63 62 71 69 77 84 75 61
10 8 4 3 15 20 9 12 4 2 6 7 10 8 5 11 13 20 20 27 43 60 56 51 55 56 56 54 54 56 62 65 70 66 64 65 66 62 70 75 72 81 70 65
4 4 14 20 2 3 11 19 21 10 11 9 8 15 16 21 18 14 33 53 58 47 42 48 54 54 54 60 62 56 58 67 65 66 67 67 68 63 69 75 74 72 63 68
12 7 9 7 6 4 11 20 20 11 5 24 19 15 6 8 26 57 55 51 46 36 41 40 41 44 50 57 62 65 65 59 64 67 70 65 68 69 75 78 73 65 59 65
16 15 23 24 17 2 11 14 23 26 21 30 35 58 48 50 46 43 50 48 37 39 37 37 39 44 48 56 64 71 69 60 62 66 67 65 67 74 79 77 74 61 61 66
9 18 27 36 34 34 41 40 38 41 42 36 39 48 50 42 39 46 51 36 32 37 35 43 46 50 53 63 69 76 60 69 62 64 65 64 61 72 78 74 74 65 69 69
7 28 30 34 24 28 40 46 48 49 51 49 49 52 53 43 26 39 41 43 37 35 41 48 52 54 57 64 69 84 76 76 68 70 56 47 51 64 71 72 74 70 71 72
8 10 11 27 12 11 21 51 48 44 36 30 31 37 19 26 26 39 44 41 51 53 51 54 56 57 59 65 81 83 89 84 72 75 46 42 49 54 63 70 71 73 74 74
27 21 14 16 15 18 16 4 12 17 24 18 32 34 28 27 46 54 53 49 57 54 56 58 59 58 62 73 78 74 76 78 71 67 44 41 45 54 63 74 74 73 70 70
34 23 10 9 16 21 30 2 2 2 12 16 21 16 28 50 63 57 45 38 52 52 58 66 62 62 69 71 69 61 66 62 82 67 41 28 45 53 63 68 67 65 66 67
22 25 11 9 10 6 1 3 6 6 15 8 10 29 38 46 25 32 49 60 64 63 64 68 66 71 74 64 56 57 56 70 78 40 21 13 44 56 61 62 62 61 62 62
6 5 21 20 11 11 4 5 6 5 8 17 43 46 44 33 34 77 75 65 67 69 70 72 70 68 62 55 49 47 54 59 54 34 16 3 28 41 42 47 49 56 59 63
4 5 4 7 9 7 3 4 10 27 48 50 54 52 55 58 64 72 79 75 73 76 68 57 59 51 50 49 45 45 45 43 43 31 20 11 26 37 38 48 61 61 66 73
5 6 8 8 8 15 27 34 44 48 54 46 51 57 53 57 66 74 81 72 71 67 71 60 52 52 48 43 39 41 36 33 27 15 12 18 28 35 48 63 66 69 77 81
8 12 9 13 3 25 45 48 52 47 43 58 59 53 50 59 68 72 75 67 70 75 69 62 56 56 51 42 40 39 35 26 14 12 16 28 39 50 61 65 64 71 73 68
13 13 12 23 32 41 38 52 55 59 61 56 55 52 59 62 68 68 62 66 75 69 64 63 59 63 59 45 42 36 29 20 15 16 16 43 56 63 65 73 69 58 59 63
13 10 7 12 54 48 51 65 63 68 61 56 58 67 70 60 68 62 64 69 67 64 61 64 64 59 50 41 40 36 28 22 13 21 28 44 64 62 65 68 68 58 49 44
Wind_Direction_850mb
46 218 215 225 239 208 174 191 209 246 146 327 300 293 290 281 266 270 266 265 266 258 297 313 304 301 300 298 285 279 281 273 288 278 261 260 261 257 257 256 256 248 249 251
184 239 208 287 162 181 184 189 191 266 273 314 295 292 283 272 255 241 241 227 235 260 300 294 316 322 309 302 300 286 282 280 276 285 283 268 262 265 262 265 252 242 238 242
216 199 213 79 131 181 199 215 193 262 304 269 297 278 209 243 243 220 211 237 242 276 301 328 338 336 332 323 308 300 284 283 279 279 280 272 265 259 265 262 256 245 237 240
256 9 160 294 221 201 222 187 230 275 317 302 330 285 243 277 214 241 221 277 251 309 325 339 345 339 337 332 322 313 293 281 276 276 274 276 273 263 254 263 264 257 245 241
59 181 221 257 228 189 129 188 279 288 287 296 254 252 285 199 150 93 309 258 246 319 338 337 336 341 337 331 326 312 298 290 279 272 272 271 272 265 257 255 255 257 254 246
270 243 249 190 97 92 123 219 303 173 244 246 210 255 183 195 182 305 308 293 296 323 336 333 331 335 335 332 325 328 309 294 287 277 268 266 265 268 258 250 251 253 252 249
267 215 248 206 173 122 125 338 309 260 225 295 170 292 252 233 240 280 293 305 320 324 329 332 332 333 333 333 332 328 322 303 288 280 276 268 261 259 263 248 250 250 247 243
239 227 188 170 214 255 213 276 258 285 274 311 260 255 196 330 287 280 280 282 318 335 333 326 321 323 327 329 333 331 327 311 293 287 282 275 266 258 258 252 247 246 245 245
199 237 218 192 159 201 142 211 23 259 257 276 248 272 272 281 272 315 278 300 335 336 330 326 319 314 317 322 322 324 321 314 302 297 289 278 266 256 253 256 249 247 248 244
191 259 218 134 155 82 239 144 185 188 247 255 258 276 256 283 302 331 314 300 322 332 329 324 320 316 312 313 313 313 314 307 303 301 292 283 272 259 251 252 250 244 249 244
169 241 221 214 215 221 171 195 170 252 233 258 293 257 244 273 304 311 306 306 312 320 321 315 315 314 312 311 311 307 311 306 302 298 295 281 272 259 250 251 250 239 244 235
188 232 251 250 208 287 239 242 215 222 193 227 278 275 283 258 273 279 304 305 308 308 306 309 310 311 308 311 312 307 308 307 306 298 296 279 270 256 244 245 247 236 234 218
178 217 275 230 150 179 214 196 210 226 247 242 259 256 160 227 283 304 302 302 306 301 304 310 314 312 311 314 312 308 306 302 304 297 296 283 265 253 236 239 241 228 220 211
180 229 246 255 291 165 228 213 218 227 254 261 248 272 282 290 300 303 298 299 295 297 303 309 313 312 311 312 312 310 304 304 304 304 292 287 262 248 230 232 230 216 212 204
208 255 254 260 262 265 269 268 260 249 252 251 264 269 276 287 302 305 296 284 287 294 307 304 302 303 310 311 310 314 305 307 306 307 290 277 261 245 227 226 219 209 205 208
200 259 261 264 260 260 266 265 257 255 258 257 258 267 272 284 300 314 294 282 282 296 298 301 302 298 305 312 310 316 312 309 309 314 286 278 269 235 219 216 211 203 202 208
225 239 262 267 279 301 273 254 254 251 250 253 248 250 283 300 317 321 315 283 282 298 294 298 301 297 301 308 322 313 312 311 311 314 297 293 253 216 204 202 200 199 200 204
241 247 249 270 265 255 264 303 277 249 255 243 249 271 297 307 308 307 302 286 286 292 291 295 298 297 300 312 310 307 309 311 303 311 305 278 227 202 192 193 193 194 197 198
224 217 231 228 211 282 292 223 138 229 293 262 269 303 311 313 314 298 305 301 295 292 292 296 296 295 298 303 303 304 298 290 288 294 285 235 199 186 183 181 182 184 182 182
193 216 208 202 246 252 66 156 182 228 283 113 353 318 313 317 307 300 309 306 299 294 296 297 296 298 300 302 303 304 290 299 312 313 326 182 179 174 168 169 168 173 180 183
154 171 218 236 262 274 341 185 203 270 350 309 315 308 303 298 296 300 303 303 302 300 298 296 297 295 293 296 305 294 294 299 325 316 325 122 173 177 178 176 178 179 178 176
282 297 221 224 241 253 92 201 278 316 308 306 305 302 299 298 303 300 301 305 307 305 305 303 302 301 299 302 301 292 288 306 326 314 284 239 200 189 182 180 171 170 171 168
292 315 285 231 280 304 300 295 299 300 296 301 300 302 301 300 299 299 302 306 305 302 303 301 301 303 300 298 295 290 292 313 324 292 220 215 205 192 186 171 169 168 162 152
285 307 267 314 266 301 311 309 306 304 296 301 301 297 294 294 296 297 304 302 302 304 302 304 305 302 300 293 287 277 284 301 308 256 220 192 175 172 164 159 153 150 155 155
276 296 290 281 287 314 296 306 304 303 305 298 299 295 293 295 292 296 297 303 304 303 303 304 302 299 297 284 281 275 275 278 277 226 213 173 160 151 148 147 147 155 158 164
9 356 323 294 299 291 292 295 304 310 310 309 305 301 299 295 291 290 295 302 300 299 304 303 308 304 286 282 277 267 267 243 216 181 171 172 158 154 153 150 150 157 162 166